Home > Weather > Cleveland > Past weeks

Flag for USA Weather for the Past 2 Weeks in Cleveland, Ohio, USA

Now
65 °F

Sunny.


Feels Like: 65 °F
Forecast: 48 / 62 °F
Wind: 9 mph from Northwest

Location: Cleveland-Hopkins International Airport

Current Time: May 6, 2016 at 3:05:18 PM

Latest Report: May 6, 2016 at 1:51 PM


Visibility: 10 mi

Pressure: 29.92 "Hg

Humidity: 45%

Dew Point: 43 °F

Location of ClevelandLocation

Historic Weather in Cleveland — Graph

°F

Cleveland Temperature Yesterday

Maximum temperature yesterday: 59 °F (at 3:51 PM)
Minimum temperature yesterday: 48 °F (at 6:57 AM)
Average temperature yesterday: 52 °F

High & Low Weather Summary for the Past Weeks

 TemperatureHumidityPressure
High79 °F (Apr 25, 1:51 PM)97% (May 1, 9:04 AM)30.22 "Hg (May 1, 9:04 AM)
Low34 °F (Apr 24, 6:51 AM)26% (Apr 24, 12:51 PM)29.62 "Hg (May 4, 2:51 PM)
Average52 °F73%29.95 "Hg
* Reported Apr 21 1:51 PM — May 6 1:51 PM, Cleveland, Weather by CustomWeather, © 2016

Note: Actual official high and low records may vary slightly from our data, if they occured in-between our weather recording intervals... More about our weather records

Advertising

Cleveland Weather History for the Previous 24 Hours

Scroll right to see more
 ConditionsComfort  
Time TempWeatherWind HumidityBarometerVisibility
1:51 PM
Fri, May 6
65 °FSunny.9 mph45%29.92 "Hg10 mi
12:51 PM61 °FSunny.12 mph52%29.95 "Hg10 mi
11:51 AM59 °FSunny.9 mph56%29.96 "Hg10 mi
10:51 AM57 °FSunny.12 mph60%29.96 "Hg10 mi
9:51 AM56 °FSunny.8 mph62%29.95 "Hg10 mi
8:51 AM54 °FPassing clouds.9 mph64%29.94 "Hg10 mi
7:51 AM50 °FPassing clouds.6 mph77%29.93 "Hg10 mi
6:51 AM47 °FPassing clouds.5 mph83%29.92 "Hg10 mi
5:51 AM45 °FPassing clouds.No wind86%29.91 "Hg10 mi
4:51 AM44 °FPassing clouds.3 mph89%29.90 "Hg10 mi
3:51 AM47 °FPassing clouds.3 mph83%29.89 "Hg10 mi
2:51 AM48 °FPassing clouds.3 mph80%29.89 "Hg10 mi
1:51 AM48 °FPassing clouds.3 mph83%29.90 "Hg10 mi
12:51 AM48 °FPassing clouds.No wind86%29.89 "Hg7 mi
11:51 PM
Thu, May 5
49 °FPassing clouds.3 mph84%29.88 "Hg8 mi
10:51 PM51 °FPassing clouds.7 mph80%29.88 "Hg9 mi
9:51 PM51 °FPassing clouds.6 mph80%29.87 "Hg10 mi
8:51 PM52 °FPartly sunny.6 mph77%29.86 "Hg10 mi
7:51 PM53 °FScattered clouds.9 mph74%29.86 "Hg10 mi
6:51 PM56 °FScattered clouds.10 mph70%29.85 "Hg10 mi
5:51 PM56 °FPartly sunny.12 mph70%29.83 "Hg10 mi
4:51 PM59 °FScattered clouds.16 mph60%29.82 "Hg10 mi
3:51 PM59 °FPartly sunny.15 mph62%29.83 "Hg10 mi
Weather by CustomWeather, © 2016

See weather overviewHow to use our weather pages